Location: Aytr�
(46.1357°N, 1.1145°W)
Time: 06:32:29
(UTC+00:00)

Nauka - Pass Details

Date: 24 September 2021
Orbit: 418 x 423 km, 51.6° (Epoch: 15 October)

Event Time Altitude Azimuth Distance (km) Brightness Sun altitude
Rises 18:51:44 0° 271° (W) 2,361 ? -10.1°
Reaches altitude 10° 18:53:56 10° 281° (W) 1,499 ? -10.5°
Maximum altitude 18:57:04 35° 349° (N) 698 ? -11.0°
Enters shadow 19:00:04 11° 57° (ENE) 1,455 ? -11.5°
